Wind_Speed
39 39 41 42 41 41 43 44 47 46 47 47 50 51 51 51 51 51 52 52 52 51 50 49 48 48 48 48 48 48 49 50 52 54 56 57 59 60 60 61 61 61 61 62
37 37 39 39 37 38 40 42 44 45 45 45 48 49 50 50 50 51 51 51 51 50 48 48 48 48 48 48 49 50 51 52 53 54 55 56 56 57 57 57 57 57 59 60
35 35 36 35 34 36 37 38 40 41 43 44 45 46 47 48 49 50 50 49 49 48 47 47 47 48 48 49 50 51 52 52 53 53 53 54 54 55 55 55 56 57 57 57
35 36 36 34 34 35 37 37 38 39 41 43 44 45 46 47 48 48 47 47 47 46 46 47 48 49 49 50 51 51 51 51 51 51 52 53 53 53 53 54 55 55 55 55
36 38 38 34 36 38 38 38 38 39 40 42 43 44 44 45 46 46 47 47 47 47 47 48 48 49 48 49 50 50 50 50 50 51 51 51 52 52 53 54 54 55 55 55
36 38 39 38 39 40 41 41 41 41 42 43 44 45 44 45 46 46 47 48 49 48 49 49 49 49 48 49 49 49 49 49 49 50 51 51 52 53 53 54 55 55 56 56
38 40 40 41 43 43 44 45 45 45 46 46 47 48 48 48 48 48 48 49 49 49 49 50 50 49 49 49 49 49 49 49 50 51 51 52 52 52 54 55 56 57 57 57
41 43 43 45 46 47 48 48 48 49 50 50 50 51 51 51 51 51 51 51 51 50 50 50 50 49 49 49 49 49 49 50 50 51 51 52 53 54 55 56 57 57 58 57
45 45 46 48 50 51 52 52 52 53 53 54 54 54 54 54 54 54 53 53 53 52 50 50 50 51 50 50 50 50 50 50 50 52 53 54 55 56 56 57 57 58 58 57
49 48 49 52 53 54 55 55 56 56 57 58 58 58 57 57 57 56 56 55 54 53 51 51 52 52 53 52 51 51 50 51 52 53 54 55 56 56 56 57 57 58 58 57
53 54 55 56 56 57 58 59 59 59 60 60 60 60 60 59 59 58 57 56 55 54 53 52 52 52 53 52 51 51 51 52 53 53 54 55 55 56 57 57 58 58 57 55
58 58 60 60 61 62 62 62 62 62 63 63 63 62 62 61 60 59 58 57 56 55 54 53 53 53 53 53 52 52 52 52 53 54 54 55 56 56 57 57 57 56 56 54
61 61 62 63 64 65 65 65 65 65 65 64 64 63 63 61 60 59 58 57 56 55 54 53 53 53 53 52 52 52 53 54 54 55 55 55 55 55 55 56 56 55 55 53
63 64 64 65 66 66 66 66 66 65 65 64 64 63 63 61 60 58 57 56 55 54 53 53 53 53 53 53 53 53 53 53 54 55 54 54 54 55 55 56 55 54 53 51
66 66 66 67 67 67 66 66 65 65 64 63 62 62 62 60 58 57 56 55 54 53 53 53 53 53 53 53 52 52 52 52 53 52 52 53 54 55 55 55 54 53 51 48
66 66 66 66 65 65 64 63 62 62 62 61 61 60 59 58 56 55 54 54 54 53 53 53 53 53 53 52 51 51 50 51 51 50 51 52 53 53 54 53 52 49 47 44
64 63 62 62 61 60 60 60 60 59 59 59 59 58 57 55 54 53 52 52 52 52 53 52 51 51 51 50 49 49 49 49 49 49 50 51 51 51 51 50 48 45 42 39
60 59 58 58 57 57 56 56 56 56 56 56 56 55 54 53 52 51 50 50 50 51 51 50 50 49 48 47 46 46 47 47 47 48 49 49 49 48 48 46 43 42 38 35
55 54 54 53 53 53 53 53 53 53 53 53 53 52 51 51 50 50 49 49 49 48 47 48 48 46 45 44 44 45 45 45 46 46 47 47 46 46 44 42 40 37 34 30
52 51 51 51 51 51 51 51 51 51 51 51 51 50 49 49 49 48 47 47 47 46 45 45 44 43 42 42 43 43 43 43 44 44 45 45 44 43 41 38 36 32 29 26
48 48 48 49 48 49 49 50 50 50 50 50 50 49 49 48 47 46 45 44 44 44 43 42 41 40 40 40 40 41 41 41 42 43 43 42 40 39 36 33 31 27 25 22
46 47 47 47 47 47 48 48 49 49 49 49 49 48 48 46 45 44 44 43 42 41 40 39 38 38 37 38 38 39 39 40 40 40 39 38 37 35 32 29 26 23 21 18
45 45 45 46 46 46 46 47 48 48 47 47 47 46 45 44 43 42 41 40 40 38 37 36 36 35 36 36 37 37 38 38 38 37 36 35 33 31 28 24 22 20 17 15
44 44 44 44 44 44 45 45 45 45 45 45 44 44 43 42 40 40 39 38 37 36 34 34 34 34 34 35 36 37 37 37 35 34 33 32 30 28 25 21 18 16 13 12
43 43 43 43 43 43 43 43 43 43 43 42 42 41 41 40 39 38 37 36 35 34 33 33 33 33 33 34 35 35 35 34 33 32 31 29 27 25 22 18 15 12 11 9
42 42 42 43 43 43 43 43 42 42 41 40 39 39 39 38 38 37 36 35 34 33 33 32 31 31 32 33 34 33 32 31 31 29 28 27 24 21 18 14 11 9 7 5
41 42 41 41 41 42 42 42 41 40 40 39 38 37 37 37 36 36 35 34 33 32 31 30 30 30 31 31 31 31 30 29 28 27 25 24 21 17 14 10 7 5 3 3
Wind_Direction
296 297 296 297 300 301 300 299 299 302 301 303 300 301 302 302 302 301 300 300 299 299 299 299 298 298 297 297 297 297 297 296 295 295 294 293 293 293 293 294 294 295 296 296
296 296 296 299 303 301 298 299 300 301 302 300 301 302 303 303 302 301 301 300 300 300 299 299 299 298 298 298 297 297 297 296 296 296 295 294 294 294 294 294 294 295 297 297
298 298 299 302 304 301 300 300 300 301 301 301 303 304 304 304 304 304 303 303 301 300 299 299 299 298 298 297 297 297 297 297 297 296 296 296 295 295 295 295 295 296 297 298
301 302 303 308 306 304 303 304 303 302 303 304 305 305 306 306 307 306 305 303 302 300 299 299 299 299 299 299 298 298 298 298 298 297 297 297 297 297 296 296 296 297 297 298
301 302 305 307 305 305 306 306 305 306 307 308 309 309 309 310 310 309 308 305 303 301 300 300 300 300 300 299 299 299 299 299 299 299 299 299 298 298 297 297 298 298 298 298
300 301 305 309 306 306 306 306 307 309 309 310 310 310 311 310 309 309 307 305 304 302 301 300 299 299 299 299 300 300 300 299 300 300 300 299 298 298 298 298 299 299 299 298
299 300 304 304 303 304 304 306 308 308 309 309 310 310 310 309 308 307 306 305 303 302 301 299 299 298 298 299 300 300 300 300 300 300 300 300 300 299 298 299 300 300 300 299
298 299 302 300 301 302 302 303 304 305 306 306 307 307 307 307 307 307 306 305 304 302 301 300 299 299 298 298 299 300 300 300 299 299 300 300 300 300 300 300 300 301 301 300
297 298 299 298 298 300 300 301 302 302 302 303 304 304 304 304 305 305 305 304 304 302 301 300 299 299 298 299 299 299 299 299 299 299 300 300 301 301 301 301 301 301 302 301
293 294 293 293 295 296 297 298 299 300 300 301 301 302 302 303 303 303 304 303 303 302 301 300 299 299 298 298 298 299 299 299 299 300 301 301 302 302 302 302 302 303 303 302
290 291 291 292 293 294 295 295 296 296 297 298 299 300 300 301 302 302 303 303 302 302 301 300 299 298 298 299 299 299 300 300 301 301 302 303 303 303 304 303 304 304 304 303
290 290 291 292 293 293 293 294 294 295 296 297 298 298 299 300 301 302 302 302 302 302 301 300 299 298 298 299 299 300 300 300 302 303 303 303 304 304 305 305 305 305 304 304
289 289 290 291 291 292 292 293 294 294 295 296 297 297 298 299 300 301 301 301 302 302 301 300 299 298 299 300 300 301 301 301 302 303 304 304 305 306 306 306 307 306 306 305
287 288 288 289 290 290 291 292 293 294 294 295 295 296 297 298 299 300 301 301 302 302 300 300 300 300 300 301 302 302 302 303 304 305 305 306 307 308 308 308 308 308 307 305
288 288 288 289 289 290 291 292 292 293 294 294 295 296 297 298 299 300 300 300 300 301 300 300 301 301 301 302 302 303 304 304 305 306 306 307 308 309 310 310 310 309 307 306
287 288 289 289 290 290 291 291 292 292 293 293 294 295 297 298 299 299 299 299 300 300 300 301 302 302 302 303 303 304 305 305 306 307 308 309 310 311 312 312 312 311 309 308
288 288 289 289 289 290 290 290 291 292 292 293 294 295 296 297 297 298 299 300 300 300 300 301 302 303 303 304 304 305 306 307 308 309 310 311 312 313 313 313 314 314 312 310
288 289 289 289 290 290 290 290 291 292 292 293 295 296 297 297 297 298 298 299 299 299 301 302 304 304 305 305 306 307 309 309 310 311 312 313 314 315 315 315 315 314 312 310
289 289 290 290 290 290 290 290 291 292 293 294 295 296 297 297 297 297 298 299 299 299 300 302 304 305 305 306 308 310 311 311 312 313 314 315 315 316 316 316 315 314 313 311
290 290 290 290 290 290 291 291 292 293 294 295 296 296 296 296 296 297 298 299 300 300 301 302 303 305 306 308 310 311 313 314 314 315 316 317 317 318 317 315 315 314 313 312
290 290 290 290 290 291 292 292 293 294 296 296 296 296 296 296 296 296 297 298 300 301 302 303 304 306 308 310 312 314 315 316 317 318 319 319 320 320 319 317 316 315 315 314
289 290 289 290 291 291 292 293 294 295 296 296 296 296 296 296 296 296 298 299 301 302 302 302 304 307 310 313 315 316 317 318 320 321 321 322 323 322 321 319 318 317 315 314
290 291 292 293 293 293 294 295 296 297 297 297 298 298 297 297 297 296 297 299 301 302 303 303 305 308 312 315 317 318 319 320 321 322 324 325 326 326 325 322 320 318 316 315
291 293 294 295 296 297 298 298 298 299 300 300 300 300 299 298 298 298 298 300 301 302 303 304 306 309 313 316 318 320 321 322 322 323 325 326 328 328 327 325 323 321 317 315
292 293 295 297 298 300 301 301 301 301 301 301 301 301 301 300 299 299 300 300 301 302 303 304 306 310 313 316 318 320 322 323 323 324 325 327 329 329 328 327 325 322 322 320
293 295 297 299 301 302 302 303 303 303 302 302 302 302 301 300 300 301 301 302 302 302 303 304 306 309 312 315 318 320 322 324 324 325 326 328 330 330 329 328 327 326 328 333
293 295 297 299 301 302 303 304 305 304 304 303 302 302 301 301 301 301 302 302 302 302 302 303 306 309 312 314 317 320 322 324 325 326 326 328 330 331 331 332 335 342 355 10
Height
5767 5765 5760 5757 5755 5752 5747 5742 5736 5733 5728 5725 5717 5712 5707 5703 5698 5694 5689 5684 5680 5675 5671 5666 5662 5657 5652 5646 5641 5635 5630 5624 5618 5612 5605 5599 5592 5586 5580 5573 5566 5559 5552 5546
5758 5755 5750 5747 5747 5742 5736 5732 5726 5722 5718 5713 5706 5701 5696 5691 5685 5680 5675 5671 5666 5661 5656 5652 5647 5642 5638 5632 5627 5621 5615 5609 5603 5596 5590 5583 5576 5570 5564 5557 5551 5544 5537 5529
5748 5745 5741 5740 5738 5732 5727 5723 5718 5712 5708 5701 5696 5690 5685 5679 5674 5668 5663 5658 5653 5648 5643 5638 5633 5628 5623 5618 5612 5606 5600 5594 5588 5581 5575 5568 5562 5555 5549 5542 5535 5529 5521 5514
5738 5736 5732 5733 5727 5722 5717 5713 5708 5703 5698 5692 5686 5681 5674 5669 5663 5657 5651 5646 5640 5635 5630 5625 5620 5614 5609 5603 5597 5592 5586 5580 5574 5567 5560 5553 5547 5540 5534 5527 5520 5513 5506 5499
5729 5724 5722 5723 5717 5711 5706 5703 5698 5692 5687 5682 5676 5671 5665 5658 5651 5645 5639 5634 5628 5623 5617 5612 5607 5601 5595 5589 5583 5577 5572 5566 5559 5553 5546 5539 5532 5526 5519 5512 5505 5498 5491 5484
5720 5714 5712 5712 5705 5699 5696 5692 5687 5682 5677 5671 5665 5660 5656 5648 5642 5635 5628 5622 5616 5610 5604 5599 5593 5588 5582 5576 5570 5564 5558 5552 5545 5538 5532 5525 5518 5511 5504 5498 5491 5483 5476 5469
5710 5705 5703 5700 5694 5689 5686 5682 5676 5670 5665 5660 5654 5648 5643 5636 5630 5624 5617 5611 5604 5598 5592 5586 5580 5575 5569 5563 5557 5551 5544 5538 5531 5524 5517 5510 5503 5496 5489 5483 5476 5468 5461 5454
5701 5697 5695 5688 5682 5678 5675 5669 5664 5659 5654 5649 5643 5637 5631 5624 5618 5611 5604 5598 5591 5585 5579 5573 5567 5561 5556 5550 5544 5537 5531 5524 5517 5510 5503 5496 5489 5482 5474 5467 5460 5452 5445 5438
5691 5689 5682 5675 5670 5666 5661 5657 5652 5647 5642 5636 5631 5625 5619 5612 5606 5599 5592 5585 5579 5572 5566 5559 5553 5547 5542 5536 5530 5524 5517 5510 5503 5496 5489 5482 5475 5467 5460 5452 5444 5437 5430 5422
5678 5676 5669 5663 5658 5654 5649 5644 5639 5633 5628 5622 5617 5611 5605 5599 5592 5586 5579 5572 5566 5559 5553 5547 5540 5533 5527 5522 5516 5510 5503 5496 5489 5482 5475 5467 5460 5452 5444 5437 5429 5421 5414 5406
5663 5661 5655 5651 5645 5641 5636 5630 5625 5620 5614 5608 5603 5597 5591 5585 5578 5572 5565 5558 5552 5545 5539 5533 5527 5520 5513 5508 5502 5496 5489 5482 5475 5468 5461 5453 5445 5437 5430 5422 5413 5406 5398 5391
5649 5645 5640 5637 5630 5625 5620 5615 5610 5605 5599 5593 5588 5582 5576 5570 5564 5557 5551 5544 5538 5531 5525 5519 5513 5506 5500 5494 5488 5481 5475 5468 5461 5454 5446 5439 5432 5424 5415 5407 5399 5391 5383 5376
5633 5629 5624 5620 5615 5609 5604 5599 5594 5588 5583 5577 5572 5566 5561 5555 5549 5543 5536 5530 5524 5518 5511 5505 5499 5492 5486 5480 5473 5467 5460 5454 5447 5439 5432 5425 5417 5409 5402 5394 5385 5376 5369 5361
5616 5612 5609 5603 5598 5593 5588 5582 5577 5572 5566 5561 5556 5550 5545 5539 5534 5528 5522 5515 5510 5503 5497 5490 5485 5478 5472 5466 5460 5453 5446 5439 5432 5425 5418 5410 5403 5395 5387 5379 5371 5362 5355 5347
5597 5593 5590 5585 5580 5575 5571 5566 5561 5555 5550 5545 5539 5534 5529 5524 5519 5513 5507 5501 5495 5489 5482 5476 5471 5465 5458 5452 5446 5439 5432 5425 5419 5411 5404 5397 5389 5381 5373 5365 5356 5348 5341 5334
5580 5575 5571 5567 5563 5558 5553 5548 5544 5539 5534 5529 5524 5519 5513 5508 5503 5498 5492 5486 5480 5475 5468 5462 5457 5451 5444 5438 5432 5426 5419 5412 5405 5399 5392 5384 5376 5368 5360 5351 5343 5335 5328 5321
5562 5558 5553 5549 5545 5541 5536 5532 5527 5523 5518 5513 5509 5504 5499 5494 5489 5484 5478 5472 5466 5460 5454 5448 5443 5437 5431 5425 5419 5413 5407 5400 5393 5386 5379 5371 5363 5355 5347 5339 5331 5324 5317 5311
5544 5541 5537 5533 5528 5524 5520 5515 5511 5506 5502 5497 5493 5489 5484 5479 5474 5470 5465 5459 5453 5447 5440 5435 5429 5424 5418 5412 5407 5401 5395 5388 5381 5374 5367 5359 5351 5343 5335 5327 5320 5313 5307 5302
5529 5525 5521 5517 5513 5509 5505 5500 5496 5492 5487 5483 5479 5474 5470 5464 5459 5455 5450 5445 5439 5434 5429 5423 5417 5411 5406 5401 5395 5389 5383 5377 5370 5363 5355 5348 5340 5332 5325 5317 5311 5304 5299 5295
5514 5510 5506 5502 5498 5494 5490 5486 5482 5478 5474 5469 5464 5460 5456 5451 5445 5441 5437 5432 5425 5421 5417 5411 5406 5401 5396 5390 5384 5379 5372 5366 5359 5352 5345 5337 5330 5322 5315 5308 5302 5297 5292 5288
5500 5496 5492 5488 5485 5480 5476 5471 5468 5464 5460 5455 5450 5446 5441 5437 5432 5428 5423 5420 5415 5409 5404 5399 5395 5390 5385 5380 5375 5369 5363 5356 5349 5342 5335 5327 5320 5313 5306 5300 5295 5291 5287 5284
5486 5482 5478 5475 5471 5468 5464 5459 5455 5451 5447 5442 5437 5432 5428 5424 5420 5415 5411 5407 5403 5398 5394 5389 5385 5380 5376 5371 5365 5360 5353 5347 5340 5333 5326 5318 5311 5305 5299 5294 5290 5286 5283 5281
5472 5469 5465 5462 5458 5455 5451 5446 5442 5438 5433 5429 5424 5419 5414 5411 5407 5403 5400 5397 5392 5388 5383 5379 5375 5371 5367 5362 5357 5351 5345 5339 5332 5325 5318 5312 5305 5299 5294 5289 5285 5282 5280 5278
5459 5456 5453 5449 5445 5442 5438 5434 5430 5425 5421 5416 5412 5407 5402 5399 5396 5392 5388 5385 5382 5378 5374 5371 5367 5363 5358 5354 5349 5343 5337 5331 5324 5318 5312 5306 5300 5294 5289 5285 5282 5279 5277 5275
5447 5444 5440 5437 5433 5429 5425 5422 5418 5413 5409 5405 5401 5396 5391 5387 5384 5382 5378 5375 5372 5369 5365 5362 5358 5354 5350 5346 5341 5336 5330 5324 5318 5312 5307 5301 5295 5290 5286 5282 5279 5277 5275 5273
5434 5431 5428 5424 5421 5417 5413 5409 5405 5401 5397 5393 5390 5386 5382 5378 5374 5371 5368 5365 5362 5359 5356 5353 5350 5347 5343 5338 5334 5329 5323 5318 5313 5307 5302 5297 5292 5287 5283 5280 5277 5275 5274 5273
5423 5419 5416 5413 5410 5406 5401 5397 5393 5389 5385 5381 5378 5375 5371 5368 5365 5362 5359 5356 5353 5350 5348 5345 5342 5339 5335 5331 5327 5322 5317 5313 5308 5303 5298 5293 5288 5284 5281 5278 5276 5275 5274 5273